Погода в Климовской

Россия / Архангельская область     60°51′52″N   39°30′58″E
темп.,
°C
ветер,
м/с
пор.,
м/с
влажн.,
%
обл.,
%
осадки,
мм/ч
давл.,
гПа
погр.,
м
25 июля, вс
вс2500:00+9зюз2370100 0.0 101552
03:00+11юз2763100 0.0 1015180
06:00+12юз286381 0.0 1016293
09:00+15зюз355340 0.0 1016559
12:00+19з4539100 0.0 10161987
15:00+19з3640100 0.0 10161940
18:00+17юз2557100 0.0 1017137
21:00+15юз256397 0.0 1017124
26 июля, пн
пн2600:00+12зюз24835 0.0 101877
03:00+12юз2784100 0.0 1018158
06:00+13зюз2880100 0.0 1018256
09:00+20з355497 0.0 1018707
12:00+21сз4749100 0.1 10171756
15:00+19зсз277941 1.3 1017444
18:00+19ссз38725 1.9 10181069
21:00+15с27895 2.2 1019209
27 июля, вт
вт2700:00+12ссз22945 0.0 102017
03:00+10с239399 0.0 102162
06:00+12ссв248116 0.0 1022194
09:00+16св235657 0.0 1021535
12:00+20ссз2444100 0.0 10201196
15:00+22ссз46405 0.0 10191804
18:00+22с35429 0.0 10171293
21:00+15в116634 0.0 101711
28 июля, ср
ср2800:00+12ююз11715 0.0 101811
03:00+11зсз11825 0.0 101710
06:00+14зсз117091 0.0 101666
09:00+21зюз22435 0.0 1014578
12:00+25зюз34310 0.0 10121560
15:00+27зюз473173 0.0 10102814
18:00+26зюз36377 0.0 10071821
21:00+18ссз11700 0.0 100714
29 июля, чт
чт2900:00+15ююз22790 0.0 100630
03:00+14юз11885 0.0 100512
06:00+17юз25855 0.0 1004147
09:00+23юз356117 0.0 1003568
12:00+26юз444366 0.0 10021662
15:00+27юз353697 0.0 10042164
18:00+16сз51296100 3.1 1005423
21:00+16вюв1399100 6.9 100475